Weather History for Joplin, MO

Change the Weather History Date:

Friday, December 28, 2012

  Actual Average Record
Temperature  
Mean Temperature 30 °F 35 °F  
Max Temperature 36 °F 45 °F 69 °F (1984)
Min Temperature 23 °F 25 °F 0 °F (1983)
Degree Days  
Heating Degree Days 35 30  
Month to date heating degree days 612 771  
Since 1 July heating degree days 1398 1528  
Cooling Degree Days 0 0  
Month to date cooling degree days 0 0  
Year to date cooling degree days 2106 1698  
Moisture  
Dew Point 24 °F    
Average Humidity 72    
Maximum Humidity 85    
Minimum Humidity 58    
Precipitation  
Precipitation 0.00 in 0.07 in 0.38 in (1948)
Month to date precipitation 0.89 2.60  
Year to date precipitation 37.85 46.33  
Snow  
Snow 0.00 in - - ()
Month to date snowfall T  
Snow Depth 0.00 in    
Sea Level Pressure  
Sea Level Pressure 30.00 in    
Wind  
Wind Speed 7 mph (WNW)    
Max Wind Speed 18 mph    
Max Gust Speed 26 mph    
Visibility 8 miles    
Events      
T = Trace of Precipitation, MM = Missing Value Source: NWS Daily Summary

Daily Weather History Graph

Daily Weather History Graph

Search for Another Location

Airport:

Trip Planner

Search our weather history database for the weather conditions in past years. The results will help you decide how hot, cold, wet, or windy it might be!

Date:

Astronomy

Dec. 28, 2012 Rise Set
Actual Time 7:30 AM CST 5:08 PM CST
Civil Twilight 7:01 AM CST 5:37 PM CST
Nautical Twilight 6:29 AM CST 6:10 PM CST
Astronomical Twilight 5:57 AM CST 6:42 PM CST
Moon 5:44 PM CST 7:26 AM CST
Length of Visible Light 10h 36m
Length of Day
9h 37m
Full, 100% of the Moon is Illuminated
Dec 28
Full
Jan 4
Last Quarter
Jan 11
New
Jan 18
First Quarter
Jan 26
Full

Hourly Weather History & Observations

Time (CST) Temp. Windchill Dew Point Humidity Pressure Visibility Wind Dir Wind Speed Gust Speed Precip Events Conditions
12:53 AM 32.0 °F 27.5 °F 25.0 °F 75% 29.99 in 10.0 mi WSW 4.6 mph - N/A   Overcast
1:53 AM 32.0 °F 27.5 °F 26.1 °F 79% 30.00 in 10.0 mi SW 4.6 mph - N/A   Overcast
2:53 AM 32.0 °F 24.8 °F 27.0 °F 82% 30.00 in 9.0 mi WSW 8.1 mph - N/A   Overcast
3:30 AM 32.0 °F 24.8 °F 26.6 °F 80% 29.98 in 8.0 mi WSW 8.1 mph - N/A   Overcast
3:53 AM 32.0 °F 26.4 °F 27.0 °F 82% 30.00 in 8.0 mi West 5.8 mph - N/A   Overcast
4:53 AM 30.2 °F 22.6 °F 26.6 °F 86% 29.99 in 7.0 mi West 8.1 mph - N/A   Overcast
5:53 AM 30.9 °F - 26.1 °F 82% 29.98 in 8.0 mi Calm Calm - N/A   Overcast
6:09 AM 30.2 °F - 26.6 °F 86% 29.97 in 8.0 mi Calm Calm - N/A   Scattered Clouds
6:53 AM 30.0 °F - 26.1 °F 85% 29.99 in 7.0 mi Calm Calm - N/A   Partly Cloudy
7:53 AM 30.2 °F - 26.6 °F 86% 29.97 in 6.0 mi Calm Calm - N/A   Overcast
8:04 AM 30.2 °F - 26.6 °F 86% 29.97 in 6.0 mi Calm Calm - N/A   Overcast
8:53 AM 30.9 °F - 27.0 °F 85% 29.99 in 6.0 mi Calm Calm - N/A   Overcast
9:53 AM 33.8 °F - 26.6 °F 75% 29.98 in 6.0 mi Calm Calm - N/A   Haze
10:13 AM 33.8 °F - 26.6 °F 75% 29.98 in 7.0 mi Calm Calm - N/A   Mostly Cloudy
10:53 AM 35.1 °F 30.1 °F 27.0 °F 72% 29.99 in 8.0 mi North 5.8 mph - N/A   Mostly Cloudy
11:53 AM 33.8 °F 27.7 °F 26.6 °F 75% 29.97 in 9.0 mi NW 6.9 mph - N/A   Overcast
12:15 PM 33.8 °F 26.4 °F 26.6 °F 75% 29.97 in 8.0 mi WNW 9.2 mph - N/A   Overcast
12:53 PM 34.0 °F 27.2 °F 27.0 °F 75% 29.98 in 8.0 mi WNW 8.1 mph - N/A   Overcast
1:00 PM 33.8 °F 28.6 °F 26.6 °F 75% 29.95 in 9.0 mi NW 5.8 mph - N/A   Overcast
1:53 PM 34.0 °F 26.6 °F 27.0 °F 75% 29.97 in 9.0 mi NW 9.2 mph - N/A   Overcast
2:53 PM 33.1 °F 24.9 °F 26.1 °F 75% 29.96 in 8.0 mi NW 10.4 mph - N/A   Overcast
2:57 PM 33.8 °F 25.3 °F 26.6 °F 75% 29.94 in 8.0 mi NW 11.5 mph - N/A   Overcast
3:53 PM 33.1 °F 25.5 °F 25.0 °F 72% 29.98 in 9.0 mi NW 9.2 mph - N/A   Overcast
4:53 PM 32.0 °F 24.2 °F 23.0 °F 69% 29.99 in 9.0 mi NW 9.2 mph - N/A   Overcast
5:02 PM 32.0 °F 24.2 °F 23.0 °F 69% 29.97 in 9.0 mi NW 9.2 mph - N/A   Overcast
5:53 PM 30.9 °F 22.8 °F 23.0 °F 72% 30.01 in 9.0 mi NW 9.2 mph - N/A   Overcast
6:53 PM 30.0 °F 21.1 °F 21.9 °F 72% 30.04 in 10.0 mi NW 10.4 mph - N/A   Overcast
7:53 PM 28.9 °F 18.6 °F 21.0 °F 72% 30.05 in 10.0 mi WNW 12.7 mph - N/A   Overcast
8:53 PM 28.0 °F - 18.0 °F 66% 30.06 in 10.0 mi North - - N/A   Overcast
9:00 PM 28.4 °F - 17.6 °F 64% 30.03 in 10.0 mi North - - N/A   Overcast
9:53 PM 28.0 °F 17.5 °F 16.0 °F 61% 30.08 in 10.0 mi NW 12.7 mph 19.6 mph N/A   Overcast
10:17 PM 26.6 °F 16.2 °F 15.8 °F 64% 30.07 in 10.0 mi NW 11.5 mph - N/A   Overcast
10:39 PM 26.6 °F 14.7 °F 12.2 °F 55% 30.07 in 10.0 mi NW 15.0 mph - N/A   Overcast
10:53 PM 26.1 °F 14.5 °F 15.1 °F 63% 30.10 in 10.0 mi WNW 13.8 mph 20.7 mph N/A   Overcast
11:53 PM 23.0 °F 12.4 °F 15.1 °F 72% 30.12 in 10.0 mi NW 10.4 mph - N/A   Clear